User: anonymous   Login
Location: Gollag?dem
(16.8053°N, 80.8024°E)
Time: 12:39:00
(UTC+00:00)
Language:

Hubble Space Telescope - Orbit

View from above orbital plane
View from above orbital plane
View from above satellite
View from above satellite

Ground track
Ground track

The orbit data is extracted from the following two-line orbital elements,

1 20580U 90037B   20294.92012058 +.00000574 +00000-0 +23888-4 0  9997
2 20580 028.4691 209.7824 0002639 007.4235 075.9607 15.09453458474935
Epoch (UTC): 20 October 2020 22:04:58
Eccentricity: 0.0002639
inclination: 28.4691°
perigee height: 536 km
apogee height: 540 km
right ascension of ascending node: 209.7824°
argument of perigee: 7.4235°
revolutions per day: 15.09453458
mean anomaly at epoch: 75.9607°
orbit number at epoch: 47493

The dashed part of the orbit path shows where the satellite is in the earth's shadow,  

DLR